(488066) = 2015 UD74

Discovered at Haleakala on 2015-09-09 by Pan-STARRS 1.

Orbit

Orbit type: Main Belt

Note: WebGL enabled browser required.

epoch2024-03-31.0
epoch JD2460400.5
perihelion date2022-06-17.44481
perihelion JD2459747.94481
argument of perihelion (°)345.81013
ascending node (°)0.97126
inclination (°)8.40322
eccentricity0.1743838
perihelion distance (AU)1.9074579
Tisserand w.r.t. Jupiter3.6
ΔV w.r.t. Earth (km/sec)8.9
semimajor axis (AU)2.3103444
mean anomaly (°)183.14961
mean daily motion (°/day)0.28066530
aphelion distance (AU)2.713
period (years)3.51
P-vector [x]0.97346011
P-vector [y]-0.19313367
P-vector [z]-0.12277948
Q-vector [x]0.22884335
Q-vector [y]0.82726813
Q-vector [z]0.51308690
absolute magnitude17.59
phase slope0.15
uncertainty0
referenceMPEC 2024-E109
observations used197
oppositions12
arc length (days)7646
first opposition used2003
last opposition used2024
residual rms (arc-secs)0.77
perturbers coarse indicatorM-v
perturbers precise indicator003Ek
first observation date used2003-03-31.0
last observation date used2024-03-06.0
computer nameMPCLINUX
JD of orbit computation2457817.291583
perihelion JD uncertainty (days)9.6697E-05
argument of perihelion uncertainty (°)4.3906E-05
ascending node uncertainty (°)3.9567E-05
inclination uncertainty (°)6.6544E-06
eccentricity uncertainty 1.2323E-07
perihelion distance uncertainty (AU)2.7341E-07
Minimum Orbit Intersection Distances (in AU)
for orbit epoch: 2460400.5, reference: E2024-FB1
Mercury1.51864
Venus1.18039
Earth0.90214
Mars0.52249
Jupiter2.69431
Saturn6.55728
Uranus15.7272
Neptune27.6661

Observations

202 total observations over interval: 2003 03 31.30333 – 2024 03 06.381589
These data are available for download (format description).

Date (UT) J2000 RA J2000 Dec Magn Location Ref
2003 03 31.30333 11 09 39.38 +07 02 13.8 21.2 R 695 – Kitt Peak MPS 723711
2003 03 31.41504 11 09 33.42 +07 02 28.2   695 – Kitt Peak MPS 723711
2004 07 12.46477 20 19 07.17 -35 19 52.5 19.6 R E12 – Siding Spring Survey MPS 723711
2004 07 12.47729 20 19 06.33 -35 19 55.5 19.2 R E12 – Siding Spring Survey MPS 723711
2004 07 12.48985 20 19 05.49 -35 19 56.9 20.1 R E12 – Siding Spring Survey MPS 723711
2004 07 12.50241 20 19 04.76 -35 20 01.5 19.8 R E12 – Siding Spring Survey MPS 723711
2008 10 25.35363 03 16 44.25 +29 15 00.8 19.8 V 703 – Catalina Sky Survey MPS 723711
2008 10 25.35920 03 16 43.89 +29 15 02.4 19.5 V 703 – Catalina Sky Survey MPS 723711
2008 10 25.36479 03 16 43.53 +29 15 03.6 20.6 V 703 – Catalina Sky Survey MPS 723711
2008 10 25.37028 03 16 43.14 +29 15 04.4 19.3 V 703 – Catalina Sky Survey MPS 723711
2012 12 22.54084 08 45 34.936 +30 28 36.09 21.3 w F51 – Pan-STARRS 1, Haleakala MPS 723711
2012 12 22.55493 08 45 34.315 +30 28 39.82 21.4 w F51 – Pan-STARRS 1, Haleakala MPS 723711
2012 12 22.56901 08 45 33.692 +30 28 43.79 21.4 w F51 – Pan-STARRS 1, Haleakala MPS 723711
2012 12 22.58306 08 45 33.053 +30 28 47.39 21.3 w F51 – Pan-STARRS 1, Haleakala MPS 723711
2014 04 26.11784 14 00 26.76 -20 41 27.3 20.8 V W84 – Cerro Tololo-DECam MPS 791049
2014 04 26.12109 14 00 26.54 -20 41 26.8   W84 – Cerro Tololo-DECam MPS 791049
2014 04 26.12430 14 00 26.32 -20 41 26.3   W84 – Cerro Tololo-DECam MPS 791049
2014 04 26.12756 14 00 26.09 -20 41 25.7   W84 – Cerro Tololo-DECam MPS 791049
2014 04 27.11657 13 59 19.29 -20 38 44.7 20.9 V W84 – Cerro Tololo-DECam MPS 791049
2014 04 27.11981 13 59 19.06 -20 38 44.1   W84 – Cerro Tololo-DECam MPS 791049
2014 04 27.12303 13 59 18.84 -20 38 43.7   W84 – Cerro Tololo-DECam MPS 791049
2014 04 27.12628 13 59 18.62 -20 38 43.2   W84 – Cerro Tololo-DECam MPS 791049
2014 04 27.12951 13 59 18.39 -20 38 42.6   W84 – Cerro Tololo-DECam MPS 791049
2015 09 09.51775 03 10 03.126 +22 46 03.16 20.8 w F51 – Pan-STARRS 1, Haleakala MPS 650886
2015 09 09.52952 03 10 03.460 +22 46 09.64 20.7 w F51 – Pan-STARRS 1, Haleakala MPS 650886
2015 09 09.55309 03 10 04.129 +22 46 22.16 20.7 w F51 – Pan-STARRS 1, Haleakala MPS 650886
2015 10 08.40839 03 09 03.19 +26 18 16.8 20.5 V 703 – Catalina Sky Survey MPS 650886
2015 10 08.41339 03 09 02.95 +26 18 18.0 20.4 V 703 – Catalina Sky Survey MPS 650886
2015 10 08.41840 03 09 02.67 +26 18 19.2 20.5 V 703 – Catalina Sky Survey MPS 650886
2015 10 08.42341 03 09 02.59 +26 18 20.9 20.1 V 703 – Catalina Sky Survey MPS 650886
2015 10 20.71245 02 58 48.78 +27 08 13.4 20.1 R D29 – Purple Mountain Observatory, XuYi Station MPS 650886
2015 10 20.72744 02 58 47.87 +27 08 16.0 20.1 R D29 – Purple Mountain Observatory, XuYi Station MPS 650886
2015 10 20.74243 02 58 46.96 +27 08 18.7 19.3 R D29 – Purple Mountain Observatory, XuYi Station MPS 650886
2015 10 23.41743 02 55 56.66 +27 14 37.8 20.3 V 703 – Catalina Sky Survey MPS 642335
2015 10 23.42197 02 55 56.33 +27 14 38.4 19.8 V 703 – Catalina Sky Survey MPS 642335
2015 10 23.42652 02 55 56.05 +27 14 38.6 19.9 V 703 – Catalina Sky Survey MPS 642335
2015 10 23.43106 02 55 55.70 +27 14 39.7 20.5 V 703 – Catalina Sky Survey MPS 642335
2015 10 24.38735 02 54 53.230 +27 16 31.75 19.6 i F51 – Pan-STARRS 1, Haleakala MPS 642335
2015 10 24.39942 02 54 52.382 +27 16 33.23 19.5 i F51 – Pan-STARRS 1, Haleakala MPS 642335
2015 10 24.41160 02 54 51.532 +27 16 34.50 19.7 i F51 – Pan-STARRS 1, Haleakala MPS 642335
2015 10 25.36373 02 53 47.703 +27 18 10.76 19.7 i F51 – Pan-STARRS 1, Haleakala MPS 650886
2015 10 25.37574 02 53 46.849 +27 18 12.21 19.5 i F51 – Pan-STARRS 1, Haleakala MPS 650886
2015 10 25.38782 02 53 45.997 +27 18 13.50 19.6 i F51 – Pan-STARRS 1, Haleakala MPS 650886
2015 10 25.39993 02 53 45.131 +27 18 14.72 19.5 i F51 – Pan-STARRS 1, Haleakala MPS 650886
2015 11 06.22071 02 39 37.59 +27 20 12.7 19.9 V 703 – Catalina Sky Survey MPS 650886
2015 11 06.22523 02 39 37.33 +27 20 12.2 19.9 V 703 – Catalina Sky Survey MPS 650886
2015 11 06.22974 02 39 36.97 +27 20 10.9 19.9 V 703 – Catalina Sky Survey MPS 650886
2015 11 06.23426 02 39 36.54 +27 20 11.1 19.7 V 703 – Catalina Sky Survey MPS 650886
2015 11 09.62381 02 35 31.78 +27 15 01.6 18.6 R D29 – Purple Mountain Observatory, XuYi Station MPS 650886
2015 11 09.63792 02 35 30.73 +27 15 01.0 20.0 R D29 – Purple Mountain Observatory, XuYi Station MPS 650886
2015 11 09.65203 02 35 29.63 +27 14 59.4 20.2 R D29 – Purple Mountain Observatory, XuYi Station MPS 650886
2015 11 11.27429 02 33 35.05 +27 11 46.3 19.4 V 703 – Catalina Sky Survey MPS 650886
2015 11 11.28744 02 33 34.07 +27 11 44.5 19.6 V 703 – Catalina Sky Survey MPS 650886
2015 11 11.29750 02 33 33.40 +27 11 42.5 19.4 V 703 – Catalina Sky Survey MPS 650886
2016 01 08.28670 02 19 39.344 +25 00 27.98 21.2 w F51 – Pan-STARRS 1, Haleakala MPS 721365
2016 01 08.30063 02 19 39.945 +25 00 28.46 21.1 w F51 – Pan-STARRS 1, Haleakala MPS 721365
2017 01 02.58121 11 44 44.604 +06 49 22.78 22.1 w F51 – Pan-STARRS 1, Haleakala MPS 755952
2017 01 02.59297 11 44 44.792 +06 49 21.30 22.1 w F51 – Pan-STARRS 1, Haleakala MPS 755952
2017 01 02.60470 11 44 45.006 +06 49 19.75 22.1 w F51 – Pan-STARRS 1, Haleakala MPS 755952
2017 01 02.61650 11 44 45.201 +06 49 18.30 22.2 w F51 – Pan-STARRS 1, Haleakala MPS 755952
2017 02 22.35610 11 26 47.13 +07 51 07.1 21.7 V G96 – Mt. Lemmon Survey MPS 768327
2017 02 22.36037 11 26 46.89 +07 51 08.1 20.9 V G96 – Mt. Lemmon Survey MPS 768327
2017 02 22.36466 11 26 46.65 +07 51 09.6 21.7 V G96 – Mt. Lemmon Survey MPS 768327
2017 02 22.37035 11 26 46.30 +07 51 10.7 21.7 V G96 – Mt. Lemmon Survey MPS 768327
2017 03 04.49802 11 16 33.822 +08 30 22.37 21.0 w F51 – Pan-STARRS 1, Haleakala MPS 775972
2017 03 04.51007 11 16 33.043 +08 30 25.34 21.0 w F51 – Pan-STARRS 1, Haleakala MPS 775972
2017 03 20.29046 11 00 16.658 +09 23 38.63 21.5 w F51 – Pan-STARRS 1, Haleakala MPS 781891
2017 03 20.30212 11 00 15.957 +09 23 40.47 21.4 w F51 – Pan-STARRS 1, Haleakala MPS 781891
2017 03 20.31377 11 00 15.261 +09 23 42.19 21.5 w F51 – Pan-STARRS 1, Haleakala MPS 781891
2018 06 15.48078 19 46 23.089 -36 32 52.64 20.1 w F51 – Pan-STARRS 1, Haleakala MPS 900310
2018 06 15.50019 19 46 22.359 -36 32 58.94 20.1 w F51 – Pan-STARRS 1, Haleakala MPS 900310
2018 06 15.50988 19 46 21.987 -36 33 01.97 20.2 w F51 – Pan-STARRS 1, Haleakala MPS 900310
2018 06 18.48491 19 44 30.014 -36 48 19.45 20.0 w F51 – Pan-STARRS 1, Haleakala MPS 900310
2018 06 18.49654 19 44 29.492 -36 48 23.09 19.9 w F51 – Pan-STARRS 1, Haleakala MPS 900310
2018 06 18.50816 19 44 28.959 -36 48 26.54 19.9 w F51 – Pan-STARRS 1, Haleakala MPS 900310
2018 06 21.46118 19 42 18.236 -37 02 52.87 19.8 i F51 – Pan-STARRS 1, Haleakala MPS 900310
2018 06 21.47093 19 42 17.721 -37 02 55.76 19.7 i F51 – Pan-STARRS 1, Haleakala MPS 900310
2018 06 21.48072 19 42 17.219 -37 02 58.72 19.8 i F51 – Pan-STARRS 1, Haleakala MPS 900310
2018 06 21.49048 19 42 16.725 -37 03 01.47 19.7 i F51 – Pan-STARRS 1, Haleakala MPS 900310
2018 07 12.38399 19 19 59.132 -38 03 33.26 19.6 w F51 – Pan-STARRS 1, Haleakala MPS 907280
2018 07 12.39566 19 19 58.221 -38 03 33.70 19.6 w F51 – Pan-STARRS 1, Haleakala MPS 907280
2018 07 12.40735 19 19 57.322 -38 03 34.09 19.6 w F51 – Pan-STARRS 1, Haleakala MPS 907280
2018 07 12.41903 19 19 56.410 -38 03 34.44 19.4 w F51 – Pan-STARRS 1, Haleakala MPS 907280
2018 08 08.32173 18 53 01.552 -36 41 50.39 19.8 w F51 – Pan-STARRS 1, Haleakala MPS 909786
2018 08 08.33147 18 53 01.168 -36 41 46.93 19.9 w F51 – Pan-STARRS 1, Haleakala MPS 909786
2019 11 03.60139 08 28 29.111 +29 10 06.68 21.9 w F51 – Pan-STARRS 1, Haleakala MPS 1078370
2019 11 03.61254 08 28 29.643 +29 10 06.72 22.2 w F51 – Pan-STARRS 1, Haleakala MPS 1078370
2019 11 03.63487 08 28 30.769 +29 10 07.66 21.9 w F51 – Pan-STARRS 1, Haleakala MPS 1078370
2019 11 09.57829 08 33 04.077 +29 15 22.62 21.6 i F51 – Pan-STARRS 1, Haleakala MPS 1081560
2019 11 09.60162 08 33 04.968 +29 15 24.47 21.6 i F51 – Pan-STARRS 1, Haleakala MPS 1081560
2019 11 09.61340 08 33 05.446 +29 15 25.34 21.5 i F51 – Pan-STARRS 1, Haleakala MPS 1081560
2020 01 03.33740 08 20 58.44 +32 25 51.0   G96 – Mt. Lemmon Survey MPS 1122900
